Location: Mahannah Oil Field
(37.4664°N, 96.6003°W)
Time: 08:59:37
(UTC+00:00)

Courier 1B - Pass Details

Date: 30 January 2021
Orbit: 962 x 1209 km, 28.3° (Epoch: 02 March)

Event Time Altitude Azimuth Distance (km) Brightness Sun altitude
Rises 08:15:03 0° 262° (W) 3,718 - -61.1°
Reaches altitude 10° 08:18:32 10° 246° (WSW) 2,733 - -60.6°
Maximum altitude 08:23:01 19° 202° (SSW) 2,096 - -59.8°
Drops below altitude 10° 08:27:27 10° 159° (SSE) 2,682 - -59.1°
Sets 08:30:50 0° 142° (SE) 3,626 - -58.5°
